| time (UTC) | temp F | wind direction | speed knots | gust knots | rain 1hr in | rain 24hr in | rain mn in | humidity % | barometer mb |
| 20260504000044 | 61 | 306 | 0.9 | 1.7 | 0.00 | 0.00 | 0.00 | 37 | 1014.7 |
| 20260503235527 | 63 | 328 | 0.0 | 2.6 | 0.00 | 0.00 | 0.00 | 35 | 1014.8 |
| 20260503235032 | 63 | 283 | 0.0 | 2.6 | 0.00 | 0.00 | 0.00 | 35 | 1014.7 |
| 20260503234543 | 62 | 360 | 0.9 | 2.6 | 0.00 | 0.00 | 0.00 | 36 | 1014.7 |
| 20260503234032 | 62 | 280 | 0.0 | 2.6 | 0.00 | 0.00 | 0.00 | 36 | 1014.7 |
| 20260503233534 | 62 | 280 | 0.9 | 2.6 | 0.00 | 0.00 | 0.00 | 34 | 1014.6 |
| 20260503233040 | 63 | 336 | 0.0 | 2.6 | 0.00 | 0.00 | 0.00 | 34 | 1014.6 |
| 20260503232531 | 62 | 322 | 1.7 | 2.6 | 0.00 | 0.00 | 0.00 | 34 | 1014.6 |
| 20260503232031 | 62 | 321 | 0.0 | 4.3 | 0.00 | 0.00 | 0.00 | 34 | 1014.5 |
| 20260503231552 | 62 | 344 | 1.7 | 4.3 | 0.00 | 0.00 | 0.00 | 33 | 1014.5 |
| 20260503231031 | 63 | 294 | 1.7 | 4.3 | 0.00 | 0.00 | 0.00 | 32 | 1014.5 |
| 20260503230541 | 64 | 281 | 0.9 | 7.0 | 0.00 | 0.00 | 0.00 | 32 | 1014.5 |
| 20260503230052 | 63 | 294 | 1.7 | 7.0 | 0.00 | 0.00 | 0.00 | 32 | 1014.6 |
| 20260503225531 | 63 | 334 | 1.7 | 7.0 | 0.00 | 0.00 | 0.00 | 31 | 1014.6 |
| 20260503225032 | 64 | 321 | 0.9 | 3.5 | 0.00 | 0.00 | 0.00 | 30 | 1014.6 |
| 20260503224541 | 62 | 290 | 1.7 | 4.3 | 0.00 | 0.00 | 0.00 | 31 | 1014.6 |
| 20260503224034 | 62 | 243 | 1.7 | 4.3 | 0.00 | 0.00 | 0.00 | 32 | 1014.6 |
| 20260503223532 | 63 | 277 | 0.9 | 3.5 | 0.00 | 0.00 | 0.00 | 31 | 1014.6 |
| 20260503223051 | 62 | 62 | 0.9 | 7.0 | 0.00 | 0.00 | 0.00 | 31 | 1014.6 |
| 20260503222531 | 62 | 333 | 0.9 | 7.0 | 0.00 | 0.00 | 0.00 | 30 | 1014.6 |
| 20260503222034 | 62 | 327 | 2.6 | 7.0 | 0.00 | 0.00 | 0.00 | 30 | 1014.7 |
| 20260503221552 | 63 | 301 | 1.7 | 7.0 | 0.00 | 0.00 | 0.00 | 30 | 1014.7 |
| 20260503221034 | 62 | 65 | 0.9 | 5.2 | 0.00 | 0.00 | 0.00 | 30 | 1014.6 |
| 20260503220534 | 62 | 227 | 1.7 | 5.2 | 0.00 | 0.00 | 0.00 | 30 | 1014.6 |
| 20260503220049 | 63 | 257 | 1.7 | 7.8 | 0.00 | 0.00 | 0.00 | 30 | 1014.6 |
| 20260503215534 | 63 | 255 | 2.6 | 7.8 | 0.00 | 0.00 | 0.00 | 30 | 1014.6 |
| 20260503215033 | 63 | 34 | 2.6 | 7.8 | 0.00 | 0.00 | 0.00 | 30 | 1014.5 |
| 20260503214539 | 63 | 286 | 1.7 | 7.8 | 0.00 | 0.00 | 0.00 | 30 | 1014.6 |
| 20260503214032 | 63 | 121 | 2.6 | 7.8 | 0.00 | 0.00 | 0.00 | 30 | 1014.5 |
| 20260503213532 | 63 | 186 | 1.7 | 7.8 | 0.00 | 0.00 | 0.00 | 30 | 1014.6 |
| 20260503213045 | 63 | 277 | 1.7 | 7.0 | 0.00 | 0.00 | 0.00 | 31 | 1014.6 |
| 20260503212533 | 63 | 273 | 1.7 | 7.8 | 0.00 | 0.00 | 0.00 | 29 | 1014.5 |
| 20260503212030 | 63 | 149 | 2.6 | 7.8 | 0.00 | 0.00 | 0.00 | 30 | 1014.6 |
| 20260503211544 | 62 | 292 | 1.7 | 9.6 | 0.00 | 0.00 | 0.00 | 30 | 1014.5 |
| 20260503211033 | 62 | 234 | 4.3 | 9.6 | 0.00 | 0.00 | 0.00 | 30 | 1014.5 |
| 20260503210531 | 62 | 351 | 4.3 | 9.6 | 0.00 | 0.00 | 0.00 | 30 | 1014.5 |
| 20260503210044 | 63 | 246 | 4.3 | 9.6 | 0.00 | 0.00 | 0.00 | 30 | 1014.5 |
| 20260503205533 | 63 | 277 | 1.7 | 9.6 | 0.00 | 0.00 | 0.00 | 30 | 1014.5 |
| 20260503205034 | 62 | 321 | 2.6 | 9.6 | 0.00 | 0.00 | 0.00 | 30 | 1014.5 |
| 20260503204547 | 63 | 317 | 2.6 | 7.8 | 0.00 | 0.00 | 0.00 | 29 | 1014.5 |
| 20260503204032 | 64 | 200 | 1.7 | 8.7 | 0.00 | 0.00 | 0.00 | 28 | 1014.3 |
| 20260503203536 | 63 | 331 | 2.6 | 9.6 | 0.00 | 0.00 | 0.00 | 29 | 1014.5 |
| 20260503203047 | 63 | 341 | 5.2 | 12.2 | 0.00 | 0.00 | 0.00 | 29 | 1014.5 |
| 20260503202534 | 63 | 346 | 2.6 | 12.2 | 0.00 | 0.00 | 0.00 | 29 | 1014.5 |
| 20260503202037 | 63 | 323 | 4.3 | 12.2 | 0.00 | 0.00 | 0.00 | 29 | 1014.5 |
| 20260503201541 | 64 | 132 | 3.5 | 9.6 | 0.00 | 0.00 | 0.00 | 28 | 1014.6 |
| 20260503201033 | 63 | 49 | 3.5 | 10.4 | 0.00 | 0.00 | 0.00 | 29 | 1014.6 |
| 20260503200533 | 63 | 53 | 4.3 | 10.4 | 0.00 | 0.00 | 0.00 | 29 | 1014.6 |
| 20260503200047 | 63 | 300 | 2.6 | 10.4 | 0.00 | 0.00 | 0.00 | 29 | 1014.8 |
| 20260503195533 | 63 | 319 | 2.6 | 10.4 | 0.00 | 0.00 | 0.00 | 28 | 1014.9 |
| 20260503195031 | 63 | 221 | 5.2 | 10.4 | 0.00 | 0.00 | 0.00 | 29 | 1014.9 |
| 20260503194544 | 63 | 314 | 5.2 | 10.4 | 0.00 | 0.00 | 0.00 | 29 | 1015.0 |
| 20260503194033 | 63 | 306 | 2.6 | 10.4 | 0.00 | 0.00 | 0.00 | 29 | 1015.1 |
| 20260503193531 | 63 | 327 | 5.2 | 10.4 | 0.00 | 0.00 | 0.00 | 29 | 1015.0 |
| 20260503193049 | 63 | 312 | 2.6 | 12.2 | 0.00 | 0.00 | 0.00 | 29 | 1015.0 |
| 20260503192532 | 63 | 213 | 5.2 | 12.2 | 0.00 | 0.00 | 0.00 | 30 | 1015.2 |
| 20260503192029 | 63 | 300 | 4.3 | 12.2 | 0.00 | 0.00 | 0.00 | 31 | 1015.2 |
| 20260503191541 | 62 | 170 | 3.5 | 10.4 | 0.00 | 0.00 | 0.00 | 31 | 1015.3 |
| 20260503191033 | 62 | 275 | 5.2 | 9.6 | 0.00 | 0.00 | 0.00 | 29 | 1015.3 |
| 20260503190531 | 63 | 229 | 3.5 | 9.6 | 0.00 | 0.00 | 0.00 | 29 | 1015.5 |
| 20260503190043 | 63 | 317 | 2.6 | 12.2 | 0.00 | 0.00 | 0.00 | 30 | 1015.4 |
| 20260503185531 | 62 | 286 | 5.2 | 12.2 | 0.00 | 0.00 | 0.00 | 30 | 1015.5 |
| 20260503185031 | 63 | 319 | 4.3 | 13.0 | 0.00 | 0.00 | 0.00 | 29 | 1015.5 |
| 20260503184555 | 64 | 305 | 4.3 | 13.0 | 0.00 | 0.00 | 0.00 | 30 | 1015.6 |
| 20260503184030 | 62 | 288 | 4.3 | 12.2 | 0.00 | 0.00 | 0.00 | 31 | 1015.6 |
| 20260503183532 | 62 | 333 | 2.6 | 11.3 | 0.00 | 0.00 | 0.00 | 31 | 1015.5 |
| 20260503183041 | 62 | 248 | 2.6 | 11.3 | 0.00 | 0.00 | 0.00 | 31 | 1015.6 |
| 20260503182541 | 61 | 325 | 4.3 | 11.3 | 0.00 | 0.00 | 0.00 | 32 | 1015.6 |
| 20260503182035 | 62 | 235 | 3.5 | 11.3 | 0.00 | 0.00 | 0.00 | 32 | 1015.6 |
| 20260503181543 | 62 | 341 | 4.3 | 11.3 | 0.00 | 0.00 | 0.00 | 32 | 1015.7 |
| 20260503181031 | 61 | 332 | 3.5 | 11.3 | 0.00 | 0.00 | 0.00 | 34 | 1015.6 |
| 20260503180530 | 61 | 329 | 3.5 | 10.4 | 0.00 | 0.00 | 0.00 | 32 | 1015.7 |
| 20260503180043 | 62 | 313 | 3.5 | 10.4 | 0.00 | 0.00 | 0.00 | 33 | 1015.7 |
| 20260503175530 | 62 | 85 | 2.6 | 10.4 | 0.00 | 0.00 | 0.00 | 32 | 1015.7 |
| 20260503175030 | 61 | 309 | 3.5 | 11.3 | 0.00 | 0.00 | 0.00 | 33 | 1015.7 |
| 20260503174600 | 61 | 307 | 4.3 | 12.2 | 0.00 | 0.00 | 0.00 | 33 | 1015.8 |
| 20260503174031 | 60 | 314 | 5.2 | 12.2 | 0.00 | 0.00 | 0.00 | 34 | 1015.9 |
| 20260503173533 | 61 | 352 | 3.5 | 11.3 | 0.00 | 0.00 | 0.00 | 34 | 1016.0 |
| 20260503173049 | 60 | 335 | 5.2 | 13.9 | 0.00 | 0.00 | 0.00 | 34 | 1015.8 |
| 20260503172533 | 60 | 101 | 7.0 | 13.9 | 0.00 | 0.00 | 0.00 | 35 | 1016.0 |
| 20260503172032 | 60 | 292 | 7.0 | 13.9 | 0.00 | 0.00 | 0.00 | 35 | 1015.9 |
| 20260503171545 | 60 | 138 | 2.6 | 12.2 | 0.00 | 0.00 | 0.00 | 34 | 1016.0 |
| 20260503171029 | 59 | 217 | 7.0 | 13.9 | 0.00 | 0.00 | 0.00 | 34 | 1016.0 |
| 20260503170534 | 60 | 326 | 6.1 | 13.9 | 0.00 | 0.00 | 0.00 | 34 | 1016.1 |
| 20260503150532 | 57 | 281 | 2.6 | 10.4 | 0.00 | 0.00 | 0.00 | 38 | 1016.5 |
| 20260503131034 | 54 | 318 | 7.0 | 15.6 | 0.00 | 0.00 | 0.00 | 43 | 1016.1 |
| 20260503130532 | 54 | 271 | 5.2 | 10.4 | 0.00 | 0.00 | 0.00 | 44 | 1016.1 |
| 20260503110535 | 52 | 296 | 5.2 | 13.9 | 0.00 | 0.00 | 0.00 | 46 | 1014.8 |
| 20260503081550 | 54 | 60 | 1.7 | 9.6 | 0.00 | 0.00 | 0.00 | 58 | 1012.2 |
| 20260503081031 | 54 | 303 | 4.3 | 9.6 | 0.00 | 0.00 | 0.00 | 58 | 1012.1 |
| 20260503080531 | 54 | 248 | 3.5 | 12.2 | 0.00 | 0.00 | 0.00 | 57 | 1012.0 |
| 20260503072533 | 56 | 225 | 3.5 | 10.4 | 0.00 | 0.00 | 0.00 | 55 | 1011.7 |
| 20260503072035 | 55 | 331 | 4.3 | 10.4 | 0.00 | 0.00 | 0.00 | 56 | 1011.6 |
| 20260503071547 | 55 | 332 | 4.3 | 10.4 | 0.00 | 0.00 | 0.00 | 56 | 1011.5 |
| 20260503071034 | 56 | 220 | 3.5 | 10.4 | 0.00 | 0.00 | 0.00 | 55 | 1011.4 |
| 20260503070533 | 56 | 28 | 2.6 | 9.6 | 0.00 | 0.00 | 0.00 | 54 | 1011.5 |
| 20260503055033 | 55 | 323 | 2.6 | 7.0 | 0.00 | 0.00 | 0.00 | 58 | 1010.9 |
| 20260503054546 | 55 | 348 | 0.9 | 7.0 | 0.00 | 0.00 | 0.00 | 57 | 1011.0 |
| 20260503054034 | 55 | 348 | 2.6 | 5.2 | 0.00 | 0.00 | 0.00 | 57 | 1011.0 |
| 20260503053533 | 55 | 344 | 1.7 | 5.2 | 0.00 | 0.00 | 0.00 | 56 | 1011.1 |
| 20260503053044 | 55 | 325 | 0.9 | 4.3 | 0.00 | 0.00 | 0.00 | 56 | 1011.1 |
| 20260503052533 | 55 | 333 | 0.9 | 5.2 | 0.00 | 0.00 | 0.00 | 56 | 1011.1 |
| 20260503052033 | 55 | 324 | 1.7 | 5.2 | 0.00 | 0.00 | 0.00 | 55 | 1011.1 |
| 20260503051543 | 55 | 84 | 1.7 | 7.0 | 0.00 | 0.00 | 0.00 | 55 | 1011.2 |
| 20260503051033 | 55 | 299 | 1.7 | 7.0 | 0.00 | 0.00 | 0.00 | 55 | 1011.1 |
| 20260503050531 | 55 | 9 | 1.7 | 7.0 | 0.00 | 0.00 | 0.00 | 55 | 1011.0 |
| 20260503050044 | 55 | 352 | 0.9 | 7.0 | 0.00 | 0.00 | 0.00 | 55 | 1011.1 |
| 20260503045533 | 55 | 340 | 1.7 | 7.0 | 0.00 | 0.00 | 0.00 | 54 | 1011.1 |
| 20260503045034 | 56 | 310 | 1.7 | 4.3 | 0.00 | 0.00 | 0.00 | 54 | 1011.2 |
| 20260503044547 | 56 | 269 | 0.9 | 5.2 | 0.00 | 0.00 | 0.00 | 54 | 1011.1 |
| 20260503044030 | 56 | 295 | 1.7 | 5.2 | 0.00 | 0.00 | 0.00 | 55 | 1011.2 |
| 20260503043533 | 56 | 344 | 1.7 | 5.2 | 0.00 | 0.00 | 0.00 | 55 | 1011.2 |
| 20260503043046 | 56 | 304 | 0.9 | 4.3 | 0.00 | 0.00 | 0.00 | 53 | 1011.3 |
| 20260503042531 | 58 | 313 | 0.9 | 5.2 | 0.00 | 0.00 | 0.00 | 52 | 1011.2 |
| 20260503042031 | 57 | 290 | 1.7 | 10.4 | 0.00 | 0.00 | 0.00 | 53 | 1011.2 |
| 20260503041540 | 56 | 310 | 1.7 | 10.4 | 0.00 | 0.00 | 0.00 | 53 | 1011.3 |
| 20260503041029 | 57 | 269 | 2.6 | 10.4 | 0.00 | 0.00 | 0.00 | 52 | 1011.3 |
| 20260503040531 | 57 | 295 | 2.6 | 7.0 | 0.00 | 0.00 | 0.00 | 50 | 1011.2 |
| 20260503040047 | 57 | 285 | 1.7 | 7.0 | 0.00 | 0.00 | 0.00 | 51 | 1011.1 |
| 20260503035531 | 57 | 352 | 2.6 | 7.0 | 0.00 | 0.00 | 0.00 | 52 | 1011.2 |
| 20260503035031 | 57 | 324 | 2.6 | 8.7 | 0.00 | 0.00 | 0.00 | 52 | 1011.2 |
| 20260503034558 | 57 | 289 | 3.5 | 8.7 | 0.00 | 0.00 | 0.00 | 52 | 1011.3 |
| 20260503034032 | 58 | 331 | 2.6 | 7.0 | 0.00 | 0.00 | 0.00 | 51 | 1011.3 |
| 20260503033533 | 58 | 352 | 1.7 | 7.0 | 0.00 | 0.00 | 0.00 | 52 | 1011.3 |
| 20260503033051 | 57 | 251 | 2.6 | 7.0 | 0.00 | 0.00 | 0.00 | 53 | 1011.2 |
| 20260503032531 | 57 | 277 | 0.9 | 5.2 | 0.00 | 0.00 | 0.00 | 53 | 1011.0 |
| 20260503032033 | 58 | 344 | 1.7 | 6.1 | 0.00 | 0.00 | 0.00 | 53 | 1011.0 |
| 20260503031538 | 57 | 28 | 1.7 | 6.1 | 0.00 | 0.00 | 0.00 | 55 | 1010.9 |
| 20260503031032 | 56 | 298 | 1.7 | 6.1 | 0.00 | 0.00 | 0.00 | 55 | 1010.9 |
| 20260503030530 | 56 | 0 | 0.9 | 4.3 | 0.00 | 0.00 | 0.00 | 55 | 1011.0 |
| 20260503030047 | 56 | 153 | 1.7 | 4.3 | 0.00 | 0.00 | 0.00 | 56 | 1010.9 |
| 20260503025531 | 56 | 240 | 1.7 | 6.1 | 0.00 | 0.00 | 0.00 | 56 | 1011.1 |
| 20260503025031 | 57 | 291 | 1.7 | 7.0 | 0.00 | 0.00 | 0.00 | 55 | 1011.1 |
| 20260503024550 | 57 | 101 | 2.6 | 7.0 | 0.00 | 0.00 | 0.00 | 55 | 1011.2 |
| 20260503024030 | 57 | 308 | 1.7 | 4.3 | 0.00 | 0.00 | 0.00 | 55 | 1011.3 |
| 20260503023530 | 57 | 242 | 0.9 | 5.2 | 0.00 | 0.00 | 0.00 | 55 | 1011.3 |
| 20260503023044 | 56 | 298 | 1.7 | 7.0 | 0.00 | 0.00 | 0.00 | 55 | 1011.4 |
| 20260503022534 | 57 | 295 | 1.7 | 7.0 | 0.00 | 0.00 | 0.00 | 54 | 1011.3 |
| 20260503022031 | 56 | 345 | 0.9 | 7.0 | 0.00 | 0.00 | 0.00 | 55 | 1011.2 |
| 20260503021543 | 56 | 261 | 2.6 | 5.2 | 0.00 | 0.00 | 0.00 | 54 | 1011.2 |
| 20260503021031 | 57 | 296 | 1.7 | 3.5 | 0.00 | 0.00 | 0.00 | 54 | 1011.1 |
| 20260503020531 | 57 | 9 | 0.9 | 5.2 | 0.00 | 0.00 | 0.00 | 53 | 1011.2 |
| 20260503020042 | 57 | 248 | 1.7 | 5.2 | 0.00 | 0.00 | 0.00 | 53 | 1011.2 |
| 20260503015533 | 57 | 33 | 2.6 | 5.2 | 0.00 | 0.00 | 0.00 | 53 | 1011.2 |
| 20260503015031 | 57 | 352 | 0.9 | 5.2 | 0.00 | 0.00 | 0.00 | 52 | 1011.2 |
| 20260503014546 | 57 | 290 | 0.9 | 7.8 | 0.00 | 0.00 | 0.00 | 52 | 1011.1 |
| 20260503014030 | 57 | 286 | 0.9 | 7.8 | 0.00 | 0.00 | 0.00 | 52 | 1011.1 |
| 20260503013532 | 56 | 336 | 2.6 | 5.2 | 0.00 | 0.00 | 0.00 | 52 | 1011.1 |
| 20260503013040 | 57 | 348 | 0.9 | 7.0 | 0.00 | 0.00 | 0.00 | 52 | 1011.0 |
| 20260503012533 | 57 | 323 | 1.7 | 7.0 | 0.00 | 0.00 | 0.00 | 51 | 1011.0 |
| 20260503012033 | 57 | 360 | 2.6 | 5.2 | 0.00 | 0.00 | 0.00 | 50 | 1010.9 |
| 20260503011540 | 57 | 308 | 0.9 | 4.3 | 0.00 | 0.00 | 0.00 | 50 | 1010.8 |
| 20260503011033 | 58 | 23 | 1.7 | 7.8 | 0.00 | 0.00 | 0.00 | 48 | 1010.6 |
| 20260503010531 | 58 | 9 | 0.9 | 7.8 | 0.00 | 0.00 | 0.00 | 49 | 1010.6 |
| 20260503010043 | 57 | 5 | 1.7 | 7.8 | 0.00 | 0.00 | 0.00 | 49 | 1010.8 |
| 20260503005533 | 57 | 22 | 1.7 | 5.2 | 0.00 | 0.00 | 0.00 | 50 | 1010.9 |
| 20260503005031 | 57 | 320 | 0.9 | 4.3 | 0.00 | 0.00 | 0.00 | 49 | 1010.7 |
| 20260503004607 | 58 | 24 | 2.6 | 5.2 | 0.00 | 0.00 | 0.00 | 48 | 1010.7 |
| 20260503004036 | 58 | 41 | 0.9 | 7.0 | 0.00 | 0.00 | 0.00 | 47 | 1010.6 |
| 20260503003533 | 58 | 112 | 2.6 | 7.8 | 0.00 | 0.00 | 0.00 | 47 | 1010.4 |
| 20260503003052 | 57 | 260 | 2.6 | 7.8 | 0.00 | 0.00 | 0.00 | 47 | 1010.4 |
| 20260503002533 | 58 | 351 | 2.6 | 6.1 | 0.00 | 0.00 | 0.00 | 45 | 1010.4 |
| 20260503002034 | 57 | 325 | 1.7 | 8.7 | 0.00 | 0.00 | 0.00 | 46 | 1010.4 |
| 20260503001559 | 57 | 84 | 2.6 | 9.6 | 0.00 | 0.00 | 0.00 | 46 | 1010.3 |
| 20260503001034 | 57 | 195 | 2.6 | 9.6 | 0.00 | 0.00 | 0.00 | 46 | 1010.2 |
| 20260503000531 | 57 | 331 | 2.6 | 9.6 | 0.00 | 0.00 | 0.00 | 46 | 1010.2 |